Location: Kalberh�ni
(46.4610°N, 7.2453°E)
Time: 02:37:05
(UTC+00:00)

Cosmos 1346 Rocket - Pass Details

Date: 20 June 2021
Orbit: 526 x 551 km, 81.2° (Epoch: 25 July)

Event Time Altitude Azimuth Distance (km) Brightness Sun altitude
Exits shadow 21:46:33 28° 183° (S) 1,033 3.7 -16.1°
Maximum altitude 21:48:34 80° 99° (E) 562 2.7 -16.2°
Drops below altitude 10° 21:52:37 10° 13° (NNE) 1,835 6.3 -16.5°
Sets 21:54:48 0° 13° (NNE) 2,736 7.3 -16.7°
